contact:dominique.lefevre@mio.osupytheas.fr, maurice.libes@osupytheas.fr, didier.mallarino@osupytheas.fr
Project:EMSO http://www.emso-fr.org/EMSO-France
Depth: 2436.0 m
Title:EMSO Ligure Ouest : Data MII capteur MICROCAT
DateTime_Computer,Latitude,Longitude,Temperature,Conductivity,Pressure,DateTime_Instrument
DateTime_Computer,Latitude,Longitude,degC,S m-1,dbar,DateTime_Instrument
2023-12-17T00:02:33Z,42.805,6.029,13.3073,4.60155,2470.833,2023-12-17T02:05:03Z
2023-12-17T00:05:36Z,42.805,6.029,13.3063,4.60152,2470.833,2023-12-17T02:08:06Z
2023-12-17T00:08:39Z,42.805,6.029,13.3056,4.60144,2470.81,2023-12-17T02:11:09Z
2023-12-17T00:11:42Z,42.805,6.029,13.3053,4.60133,2470.833,2023-12-17T02:14:12Z
2023-12-17T00:14:46Z,42.805,6.029,13.3056,4.60154,2470.81,2023-12-17T02:17:15Z
2023-12-17T00:17:49Z,42.805,6.029,13.3068,4.60153,2470.81,2023-12-17T02:20:19Z
2023-12-17T00:20:52Z,42.805,6.029,13.3060,4.60140,2470.871,2023-12-17T02:23:22Z
2023-12-17T00:23:55Z,42.805,6.029,13.3061,4.60150,2470.8,2023-12-17T02:26:25Z
2023-12-17T00:26:58Z,42.805,6.029,13.3064,4.60155,2470.8,2023-12-17T02:29:28Z
2023-12-17T00:30:01Z,42.805,6.029,13.3077,4.60140,2470.787,2023-12-17T02:32:31Z
2023-12-17T00:33:04Z,42.805,6.029,13.3063,4.60131,2470.847,2023-12-17T02:35:34Z
2023-12-17T00:36:07Z,42.805,6.029,13.3076,4.60145,2470.81,2023-12-17T02:38:37Z
2023-12-17T00:39:10Z,42.805,6.029,13.3079,4.60137,2470.787,2023-12-17T02:41:40Z
2023-12-17T00:42:13Z,42.805,6.029,13.3063,4.60140,2470.81,2023-12-17T02:44:43Z
2023-12-17T00:45:16Z,42.805,6.029,13.3059,4.60137,2470.833,2023-12-17T02:47:46Z
2023-12-17T00:48:19Z,42.805,6.029,13.3054,4.60143,2470.81,2023-12-17T02:50:49Z
2023-12-17T00:51:23Z,42.805,6.029,13.3058,4.60129,2470.787,2023-12-17T02:53:52Z
2023-12-17T00:54:26Z,42.805,6.029,13.3056,4.60132,2470.8,2023-12-17T02:56:56Z
2023-12-17T00:57:29Z,42.805,6.029,13.3048,4.60126,2470.787,2023-12-17T02:59:59Z
2023-12-17T01:00:32Z,42.805,6.029,13.3053,4.60140,2470.787,2023-12-17T03:03:02Z
2023-12-17T01:03:35Z,42.805,6.029,13.3062,4.60152,2470.847,2023-12-17T03:06:05Z
2023-12-17T01:06:38Z,42.805,6.029,13.3054,4.60129,2470.787,2023-12-17T03:09:08Z
2023-12-17T01:09:41Z,42.805,6.029,13.3058,4.60140,2470.833,2023-12-17T03:12:11Z
2023-12-17T01:12:44Z,42.805,6.029,13.3053,4.60144,2470.787,2023-12-17T03:15:14Z
2023-12-17T01:15:47Z,42.805,6.029,13.3049,4.60125,2470.824,2023-12-17T03:18:17Z
2023-12-17T01:18:50Z,42.805,6.029,13.3047,4.60142,2470.787,2023-12-17T03:21:20Z
2023-12-17T01:21:53Z,42.805,6.029,13.3058,4.60162,2470.824,2023-12-17T03:24:23Z
2023-12-17T01:24:56Z,42.805,6.029,13.3055,4.60144,2470.833,2023-12-17T03:27:26Z
2023-12-17T01:28:00Z,42.805,6.029,13.3054,4.60132,2470.81,2023-12-17T03:30:29Z
2023-12-17T01:31:03Z,42.805,6.029,13.3046,4.60141,2470.81,2023-12-17T03:33:32Z
2023-12-17T01:34:06Z,42.805,6.029,13.3056,4.60135,2470.824,2023-12-17T03:36:36Z
2023-12-17T01:37:09Z,42.805,6.029,13.3048,4.60129,2470.81,2023-12-17T03:39:39Z
2023-12-17T01:40:12Z,42.805,6.029,13.3047,4.60127,2470.81,2023-12-17T03:42:42Z
2023-12-17T01:43:15Z,42.805,6.029,13.3049,4.60133,2470.8,2023-12-17T03:45:45Z
2023-12-17T01:46:18Z,42.805,6.029,13.3048,4.60134,2470.81,2023-12-17T03:48:48Z
2023-12-17T01:49:21Z,42.805,6.029,13.3066,4.60122,2470.787,2023-12-17T03:51:51Z
2023-12-17T01:52:24Z,42.805,6.029,13.3056,4.60157,2470.787,2023-12-17T03:54:54Z
2023-12-17T01:55:27Z,42.805,6.029,13.3053,4.60169,2470.763,2023-12-17T03:57:57Z
2023-12-17T01:58:30Z,42.805,6.029,13.3061,4.60169,2470.824,2023-12-17T04:01:00Z
2023-12-17T02:01:33Z,42.805,6.029,13.3055,4.60140,2470.81,2023-12-17T04:04:03Z
2023-12-17T02:04:36Z,42.805,6.029,13.3044,4.60152,2470.763,2023-12-17T04:07:06Z
2023-12-17T02:07:40Z,42.805,6.029,13.3063,4.60137,2470.787,2023-12-17T04:10:09Z
2023-12-17T02:10:43Z,42.805,6.029,13.3055,4.60132,2470.777,2023-12-17T04:13:13Z
2023-12-17T02:13:46Z,42.805,6.029,13.3056,4.60135,2470.787,2023-12-17T04:16:16Z
2023-12-17T02:16:49Z,42.805,6.029,13.3064,4.60135,2470.787,2023-12-17T04:19:19Z
2023-12-17T02:19:52Z,42.805,6.029,13.3054,4.60132,2470.787,2023-12-17T04:22:22Z
2023-12-17T02:22:55Z,42.805,6.029,13.3061,4.60132,2470.787,2023-12-17T04:25:25Z
2023-12-17T02:25:58Z,42.805,6.029,13.3051,4.60138,2470.74,2023-12-17T04:28:28Z
2023-12-17T02:29:01Z,42.805,6.029,13.3058,4.60135,2470.787,2023-12-17T04:31:31Z
2023-12-17T02:32:04Z,42.805,6.029,13.3062,4.60142,2470.763,2023-12-17T04:34:34Z
2023-12-17T02:35:07Z,42.805,6.029,13.3067,4.60130,2470.824,2023-12-17T04:37:37Z
2023-12-17T02:38:10Z,42.805,6.029,13.3046,4.60137,2470.787,2023-12-17T04:40:40Z
2023-12-17T02:41:13Z,42.805,6.029,13.3051,4.60135,2470.787,2023-12-17T04:43:43Z
2023-12-17T02:44:16Z,42.805,6.029,13.3049,4.60137,2470.763,2023-12-17T04:46:46Z
2023-12-17T02:47:20Z,42.805,6.029,13.3058,4.60134,2470.787,2023-12-17T04:49:49Z
2023-12-17T02:50:23Z,42.805,6.029,13.3063,4.60135,2470.763,2023-12-17T04:52:53Z
2023-12-17T02:53:26Z,42.805,6.029,13.3043,4.60135,2470.8,2023-12-17T04:55:56Z
2023-12-17T02:56:29Z,42.805,6.029,13.3054,4.60122,2470.763,2023-12-17T04:58:59Z
2023-12-17T02:59:32Z,42.805,6.029,13.3065,4.60131,2470.763,2023-12-17T05:02:02Z
2023-12-17T03:02:35Z,42.805,6.029,13.3054,4.60131,2470.763,2023-12-17T05:05:05Z
2023-12-17T03:05:38Z,42.805,6.029,13.3059,4.60133,2470.763,2023-12-17T05:08:08Z
2023-12-17T03:08:41Z,42.805,6.029,13.3041,4.60140,2470.763,2023-12-17T05:11:11Z
2023-12-17T03:11:44Z,42.805,6.029,13.3058,4.60122,2470.763,2023-12-17T05:14:14Z
2023-12-17T03:14:47Z,42.805,6.029,13.3053,4.60122,2470.74,2023-12-17T05:17:17Z
2023-12-17T03:17:50Z,42.805,6.029,13.3052,4.60132,2470.787,2023-12-17T05:20:20Z
2023-12-17T03:20:53Z,42.805,6.029,13.3047,4.60128,2470.787,2023-12-17T05:23:23Z
2023-12-17T03:23:57Z,42.805,6.029,13.3050,4.60122,2470.777,2023-12-17T05:26:26Z
2023-12-17T03:27:00Z,42.805,6.029,13.3065,4.60129,2470.8,2023-12-17T05:29:30Z
2023-12-17T03:30:03Z,42.805,6.029,13.3058,4.60129,2470.74,2023-12-17T05:32:33Z
2023-12-17T03:33:06Z,42.805,6.029,13.3050,4.60133,2470.777,2023-12-17T05:35:36Z
2023-12-17T03:36:09Z,42.805,6.029,13.3053,4.60132,2470.74,2023-12-17T05:38:39Z
2023-12-17T03:39:12Z,42.805,6.029,13.3051,4.60130,2470.74,2023-12-17T05:41:42Z
2023-12-17T03:42:15Z,42.805,6.029,13.3056,4.60125,2470.763,2023-12-17T05:44:45Z
2023-12-17T03:45:18Z,42.805,6.029,13.3062,4.60145,2470.777,2023-12-17T05:47:48Z
2023-12-17T03:48:21Z,42.805,6.029,13.3055,4.60126,2470.777,2023-12-17T05:50:51Z
2023-12-17T03:51:24Z,42.805,6.029,13.3050,4.60162,2470.763,2023-12-17T05:53:54Z
2023-12-17T03:54:27Z,42.805,6.029,13.3056,4.60135,2470.787,2023-12-17T05:56:57Z
2023-12-17T03:57:30Z,42.805,6.029,13.3067,4.60136,2470.787,2023-12-17T06:00:00Z
2023-12-17T04:00:33Z,42.805,6.029,13.3057,4.60162,2470.763,2023-12-17T06:03:03Z
2023-12-17T04:03:37Z,42.805,6.029,13.3073,4.60145,2470.763,2023-12-17T06:06:06Z
2023-12-17T04:06:40Z,42.805,6.029,13.3052,4.60162,2470.763,2023-12-17T06:09:10Z
2023-12-17T04:09:43Z,42.805,6.029,13.3056,4.60135,2470.777,2023-12-17T06:12:13Z
2023-12-17T04:12:46Z,42.805,6.029,13.3053,4.60132,2470.763,2023-12-17T06:15:16Z
2023-12-17T04:15:49Z,42.805,6.029,13.3043,4.60129,2470.777,2023-12-17T06:18:19Z
2023-12-17T04:18:52Z,42.805,6.029,13.3061,4.60127,2470.763,2023-12-17T06:21:22Z
2023-12-17T04:21:55Z,42.805,6.029,13.3060,4.60144,2470.717,2023-12-17T06:24:25Z
2023-12-17T04:24:58Z,42.805,6.029,13.3056,4.60136,2470.74,2023-12-17T06:27:28Z
2023-12-17T04:28:01Z,42.805,6.029,13.3054,4.60160,2470.763,2023-12-17T06:30:31Z
2023-12-17T04:31:04Z,42.805,6.029,13.3081,4.60144,2470.787,2023-12-17T06:33:34Z
2023-12-17T04:34:07Z,42.805,6.029,13.3063,4.60142,2470.74,2023-12-17T06:36:37Z
2023-12-17T04:37:10Z,42.805,6.029,13.3079,4.60132,2470.777,2023-12-17T06:39:40Z
2023-12-17T04:40:14Z,42.805,6.029,13.3061,4.60160,2470.787,2023-12-17T06:42:44Z
2023-12-17T04:43:17Z,42.805,6.029,13.3052,4.60137,2470.777,2023-12-17T06:45:47Z
2023-12-17T04:46:20Z,42.805,6.029,13.3057,4.60169,2470.754,2023-12-17T06:48:50Z
2023-12-17T04:49:23Z,42.805,6.029,13.3063,4.60169,2470.74,2023-12-17T06:51:53Z
2023-12-17T04:52:26Z,42.805,6.029,13.3073,4.60170,2470.763,2023-12-17T06:54:56Z
2023-12-17T04:55:29Z,42.805,6.029,13.3078,4.60198,2470.8,2023-12-17T06:57:59Z
2023-12-17T04:58:32Z,42.805,6.029,13.3066,4.60144,2470.787,2023-12-17T07:01:02Z
2023-12-17T05:01:35Z,42.805,6.029,13.3054,4.60164,2470.763,2023-12-17T07:04:05Z
2023-12-17T05:04:38Z,42.805,6.029,13.3059,4.60157,2470.754,2023-12-17T07:07:08Z
2023-12-17T05:07:41Z,42.805,6.029,13.3082,4.60131,2470.8,2023-12-17T07:10:11Z
2023-12-17T05:10:44Z,42.805,6.029,13.3061,4.60146,2470.74,2023-12-17T07:13:14Z
2023-12-17T05:13:47Z,42.805,6.029,13.3055,4.60159,2470.754,2023-12-17T07:16:17Z
2023-12-17T05:16:50Z,42.805,6.029,13.3058,4.60180,2470.777,2023-12-17T07:19:20Z
2023-12-17T05:19:54Z,42.805,6.029,13.3061,4.60140,2470.763,2023-12-17T07:22:24Z
2023-12-17T05:22:57Z,42.805,6.029,13.3082,4.60130,2470.763,2023-12-17T07:25:27Z
2023-12-17T05:26:00Z,42.805,6.029,13.3056,4.60161,2470.787,2023-12-17T07:28:30Z
2023-12-17T05:29:03Z,42.805,6.029,13.3054,4.60150,2470.787,2023-12-17T07:31:33Z
2023-12-17T05:32:06Z,42.805,6.029,13.3051,4.60139,2470.787,2023-12-17T07:34:36Z
2023-12-17T05:35:09Z,42.805,6.029,13.3056,4.60142,2470.763,2023-12-17T07:37:39Z
2023-12-17T05:38:12Z,42.805,6.029,13.3077,4.60135,2470.777,2023-12-17T07:40:42Z
2023-12-17T05:41:15Z,42.805,6.029,13.3074,4.60180,2470.8,2023-12-17T07:43:45Z
2023-12-17T05:44:18Z,42.805,6.029,13.3089,4.60165,2470.787,2023-12-17T07:46:48Z
2023-12-17T05:47:21Z,42.805,6.029,13.3084,4.60145,2470.787,2023-12-17T07:49:51Z
2023-12-17T05:50:24Z,42.805,6.029,13.3083,4.60193,2470.824,2023-12-17T07:52:54Z
2023-12-17T05:53:27Z,42.805,6.029,13.3072,4.60157,2470.763,2023-12-17T07:55:57Z
2023-12-17T05:56:31Z,42.805,6.029,13.3087,4.60155,2470.787,2023-12-17T07:59:01Z
2023-12-17T05:59:34Z,42.805,6.029,13.3084,4.60198,2470.777,2023-12-17T08:02:04Z
2023-12-17T06:02:37Z,42.805,6.029,13.3063,4.60177,2470.824,2023-12-17T08:05:07Z
2023-12-17T06:05:40Z,42.805,6.029,13.3069,4.60155,2470.824,2023-12-17T08:08:10Z
2023-12-17T06:08:43Z,42.805,6.029,13.3074,4.60175,2470.81,2023-12-17T08:11:13Z
2023-12-17T06:11:46Z,42.805,6.029,13.3067,4.60185,2470.8,2023-12-17T08:14:16Z
2023-12-17T06:14:49Z,42.805,6.029,13.3066,4.60183,2470.787,2023-12-17T08:17:19Z
2023-12-17T06:17:52Z,42.805,6.029,13.3064,4.60189,2470.847,2023-12-17T08:20:22Z
2023-12-17T06:20:55Z,42.805,6.029,13.3070,4.60185,2470.81,2023-12-17T08:23:25Z
2023-12-17T06:23:58Z,42.805,6.029,13.3082,4.60173,2470.847,2023-12-17T08:26:28Z
2023-12-17T06:27:01Z,42.805,6.029,13.3060,4.60173,2470.8,2023-12-17T08:29:31Z
2023-12-17T06:30:04Z,42.805,6.029,13.3071,4.60173,2470.81,2023-12-17T08:32:34Z
2023-12-17T06:33:07Z,42.805,6.029,13.3073,4.60179,2470.787,2023-12-17T08:35:37Z
2023-12-17T06:36:11Z,42.805,6.029,13.3056,4.60179,2470.833,2023-12-17T08:38:41Z
2023-12-17T06:39:14Z,42.805,6.029,13.3084,4.60155,2470.81,2023-12-17T08:41:44Z
2023-12-17T06:42:17Z,42.805,6.029,13.3084,4.60195,2470.833,2023-12-17T08:44:47Z
2023-12-17T06:45:20Z,42.805,6.029,13.3069,4.60172,2470.81,2023-12-17T08:47:50Z
2023-12-17T06:48:23Z,42.805,6.029,13.3070,4.60180,2470.857,2023-12-17T08:50:53Z
2023-12-17T06:51:26Z,42.805,6.029,13.3051,4.60181,2470.833,2023-12-17T08:53:56Z
2023-12-17T06:54:29Z,42.805,6.029,13.3043,4.60142,2470.833,2023-12-17T08:56:59Z
2023-12-17T06:57:32Z,42.805,6.029,13.3054,4.60167,2470.88,2023-12-17T09:00:02Z
2023-12-17T07:00:35Z,42.805,6.029,13.3049,4.60169,2470.871,2023-12-17T09:03:05Z
2023-12-17T07:03:38Z,42.805,6.029,13.3052,4.60160,2470.88,2023-12-17T09:06:08Z
2023-12-17T07:06:41Z,42.805,6.029,13.3065,4.60171,2470.857,2023-12-17T09:09:11Z
2023-12-17T07:09:44Z,42.805,6.029,13.3052,4.60145,2470.88,2023-12-17T09:12:14Z
2023-12-17T07:12:48Z,42.805,6.029,13.3045,4.60135,2470.894,2023-12-17T09:15:17Z
2023-12-17T07:15:51Z,42.805,6.029,13.3056,4.60168,2470.894,2023-12-17T09:18:21Z
2023-12-17T07:18:54Z,42.805,6.029,13.3076,4.60165,2470.88,2023-12-17T09:21:24Z
2023-12-17T07:21:57Z,42.805,6.029,13.3050,4.60170,2470.88,2023-12-17T09:24:27Z
2023-12-17T07:25:00Z,42.805,6.029,13.3062,4.60161,2470.904,2023-12-17T09:27:30Z
2023-12-17T07:28:03Z,42.805,6.029,13.3053,4.60175,2470.94,2023-12-17T09:30:33Z
2023-12-17T07:31:06Z,42.805,6.029,13.3065,4.60164,2470.904,2023-12-17T09:33:36Z
2023-12-17T07:34:09Z,42.805,6.029,13.3046,4.60142,2470.927,2023-12-17T09:36:39Z
2023-12-17T07:37:12Z,42.805,6.029,13.3056,4.60157,2470.89,2023-12-17T09:39:42Z
2023-12-17T07:40:15Z,42.805,6.029,13.3058,4.60157,2470.904,2023-12-17T09:42:45Z
2023-12-17T07:43:18Z,42.805,6.029,13.3056,4.60188,2470.904,2023-12-17T09:45:48Z
2023-12-17T07:46:21Z,42.805,6.029,13.3051,4.60143,2470.94,2023-12-17T09:48:51Z
2023-12-17T07:49:25Z,42.805,6.029,13.3050,4.60138,2470.927,2023-12-17T09:51:54Z
2023-12-17T07:52:28Z,42.805,6.029,13.3048,4.60147,2470.964,2023-12-17T09:54:58Z
2023-12-17T07:55:31Z,42.805,6.029,13.3061,4.60173,2470.927,2023-12-17T09:58:01Z
2023-12-17T07:58:34Z,42.805,6.029,13.3057,4.60170,2470.964,2023-12-17T10:01:04Z
2023-12-17T08:01:37Z,42.805,6.029,13.3070,4.60149,2470.95,2023-12-17T10:04:07Z
2023-12-17T08:04:40Z,42.805,6.029,13.3076,4.60150,2470.95,2023-12-17T10:07:10Z
2023-12-17T08:07:43Z,42.805,6.029,13.3076,4.60161,2470.95,2023-12-17T10:10:13Z
2023-12-17T08:10:46Z,42.805,6.029,13.3061,4.60172,2470.973,2023-12-17T10:13:16Z
2023-12-17T08:13:49Z,42.805,6.029,13.3051,4.60162,2470.987,2023-12-17T10:16:19Z
2023-12-17T08:16:52Z,42.805,6.029,13.3063,4.60185,2470.95,2023-12-17T10:19:22Z
2023-12-17T08:19:55Z,42.805,6.029,13.3054,4.60164,2470.927,2023-12-17T10:22:25Z
2023-12-17T08:22:58Z,42.805,6.029,13.3060,4.60178,2470.987,2023-12-17T10:25:28Z
2023-12-17T08:26:02Z,42.805,6.029,13.3056,4.60160,2470.997,2023-12-17T10:28:31Z
2023-12-17T08:29:05Z,42.805,6.029,13.3048,4.60138,2470.973,2023-12-17T10:31:35Z
2023-12-17T08:32:08Z,42.805,6.029,13.3050,4.60153,2470.973,2023-12-17T10:34:38Z
2023-12-17T08:35:11Z,42.805,6.029,13.3064,4.60173,2470.973,2023-12-17T10:37:41Z
2023-12-17T08:38:14Z,42.805,6.029,13.3068,4.60154,2470.997,2023-12-17T10:40:44Z
2023-12-17T08:41:17Z,42.805,6.029,13.3063,4.60148,2470.997,2023-12-17T10:43:47Z
2023-12-17T08:44:20Z,42.805,6.029,13.3056,4.60165,2471.02,2023-12-17T10:46:50Z
2023-12-17T08:47:23Z,42.805,6.029,13.3063,4.60142,2470.997,2023-12-17T10:49:53Z
2023-12-17T08:50:26Z,42.805,6.029,13.3070,4.60157,2471.02,2023-12-17T10:52:56Z
2023-12-17T08:53:29Z,42.805,6.029,13.3058,4.60155,2470.997,2023-12-17T10:55:59Z
2023-12-17T08:56:32Z,42.805,6.029,13.3056,4.60148,2471.034,2023-12-17T10:59:02Z
2023-12-17T08:59:35Z,42.805,6.029,13.3065,4.60160,2471.034,2023-12-17T11:02:05Z
2023-12-17T09:02:39Z,42.805,6.029,13.3054,4.60142,2471.02,2023-12-17T11:05:08Z
2023-12-17T09:05:42Z,42.805,6.029,13.3054,4.60157,2471.01,2023-12-17T11:08:12Z
2023-12-17T09:08:45Z,42.805,6.029,13.3067,4.60165,2470.997,2023-12-17T11:11:15Z
2023-12-17T09:11:48Z,42.805,6.029,13.3050,4.60142,2471.02,2023-12-17T11:14:18Z
2023-12-17T09:14:51Z,42.805,6.029,13.3057,4.60160,2471.01,2023-12-17T11:17:21Z
2023-12-17T09:17:54Z,42.805,6.029,13.3054,4.60170,2471.043,2023-12-17T11:20:24Z
2023-12-17T09:20:57Z,42.805,6.029,13.3054,4.60138,2471.02,2023-12-17T11:23:27Z
2023-12-17T09:24:00Z,42.805,6.029,13.3049,4.60140,2471.034,2023-12-17T11:26:30Z
2023-12-17T09:27:03Z,42.805,6.029,13.3051,4.60150,2471.043,2023-12-17T11:29:33Z
2023-12-17T09:30:06Z,42.805,6.029,13.3060,4.60151,2471.02,2023-12-17T11:32:36Z
2023-12-17T09:33:09Z,42.805,6.029,13.3059,4.60163,2471.02,2023-12-17T11:35:39Z
2023-12-17T09:36:13Z,42.805,6.029,13.3060,4.60175,2471.034,2023-12-17T11:38:42Z
2023-12-17T09:39:16Z,42.805,6.029,13.3047,4.60155,2471.043,2023-12-17T11:41:46Z
2023-12-17T09:42:19Z,42.805,6.029,13.3053,4.60162,2471.02,2023-12-17T11:44:49Z
2023-12-17T09:45:22Z,42.805,6.029,13.3054,4.60147,2471.01,2023-12-17T11:47:52Z
2023-12-17T09:48:25Z,42.805,6.029,13.3069,4.60167,2471.043,2023-12-17T11:50:55Z
2023-12-17T09:51:28Z,42.805,6.029,13.3062,4.60173,2471.034,2023-12-17T11:53:58Z
2023-12-17T09:54:31Z,42.805,6.029,13.3054,4.60162,2471.057,2023-12-17T11:57:01Z
2023-12-17T09:57:34Z,42.805,6.029,13.3060,4.60172,2471.081,2023-12-17T12:00:04Z
2023-12-17T10:00:37Z,42.805,6.029,13.3058,4.60147,2471.034,2023-12-17T12:03:07Z
2023-12-17T10:03:40Z,42.805,6.029,13.3047,4.60142,2471.057,2023-12-17T12:06:10Z
2023-12-17T10:06:43Z,42.805,6.029,13.3058,4.60165,2471.02,2023-12-17T12:09:13Z
2023-12-17T10:09:46Z,42.805,6.029,13.3053,4.60174,2471.02,2023-12-17T12:12:16Z
2023-12-17T10:12:50Z,42.805,6.029,13.3056,4.60164,2471.043,2023-12-17T12:15:19Z
2023-12-17T10:15:53Z,42.805,6.029,13.3063,4.60172,2471.034,2023-12-17T12:18:23Z
2023-12-17T10:18:56Z,42.805,6.029,13.3060,4.60160,2471.034,2023-12-17T12:21:26Z
2023-12-17T10:21:59Z,42.805,6.029,13.3058,4.60170,2471.043,2023-12-17T12:24:29Z
2023-12-17T10:25:02Z,42.805,6.029,13.3063,4.60164,2471.034,2023-12-17T12:27:32Z
2023-12-17T10:28:05Z,42.805,6.029,13.3051,4.60165,2471.057,2023-12-17T12:30:35Z
2023-12-17T10:31:08Z,42.805,6.029,13.3058,4.60167,2471.034,2023-12-17T12:33:38Z
2023-12-17T10:34:11Z,42.805,6.029,13.3063,4.60158,2471.043,2023-12-17T12:36:41Z
2023-12-17T10:37:14Z,42.805,6.029,13.3061,4.60157,2471.043,2023-12-17T12:39:44Z
2023-12-17T10:40:17Z,42.805,6.029,13.3055,4.60163,2471.043,2023-12-17T12:42:47Z
2023-12-17T10:43:20Z,42.805,6.029,13.3051,4.60143,2471.081,2023-12-17T12:45:50Z
2023-12-17T10:46:24Z,42.805,6.029,13.3054,4.60155,2471.057,2023-12-17T12:48:53Z
2023-12-17T10:49:27Z,42.805,6.029,13.3054,4.60156,2471.034,2023-12-17T12:51:57Z
2023-12-17T10:52:30Z,42.805,6.029,13.3056,4.60173,2471.043,2023-12-17T12:55:00Z
2023-12-17T10:55:33Z,42.805,6.029,13.3067,4.60173,2471.043,2023-12-17T12:58:03Z
2023-12-17T10:58:36Z,42.805,6.029,13.3060,4.60165,2471.067,2023-12-17T13:01:06Z
2023-12-17T11:01:39Z,42.805,6.029,13.3060,4.60180,2471.057,2023-12-17T13:04:09Z
2023-12-17T11:04:42Z,42.805,6.029,13.3063,4.60170,2471.02,2023-12-17T13:07:12Z
2023-12-17T11:07:45Z,42.805,6.029,13.3054,4.60160,2471.034,2023-12-17T13:10:15Z
2023-12-17T11:10:48Z,42.805,6.029,13.3063,4.60167,2471.02,2023-12-17T13:13:18Z
2023-12-17T11:13:51Z,42.805,6.029,13.3063,4.60171,2471.067,2023-12-17T13:16:21Z
2023-12-17T11:16:54Z,42.805,6.029,13.3057,4.60165,2471.01,2023-12-17T13:19:24Z
2023-12-17T11:19:57Z,42.805,6.029,13.3065,4.60180,2471.043,2023-12-17T13:22:27Z
2023-12-17T11:23:01Z,42.805,6.029,13.3054,4.60150,2471.067,2023-12-17T13:25:30Z
2023-12-17T11:26:04Z,42.805,6.029,13.3061,4.60172,2471.03,2023-12-17T13:28:34Z
2023-12-17T11:29:07Z,42.805,6.029,13.3054,4.60160,2471.02,2023-12-17T13:31:37Z
2023-12-17T11:32:08Z,42.805,6.029,13.3065,4.60163,2471.057,2023-12-17T13:34:38Z
2023-12-17T11:35:11Z,42.805,6.029,13.3063,4.60168,2471.067,2023-12-17T13:37:41Z
2023-12-17T11:38:14Z,42.805,6.029,13.3053,4.60158,2471.043,2023-12-17T13:40:44Z
2023-12-17T11:41:17Z,42.805,6.029,13.3051,4.60162,2471.01,2023-12-17T13:43:47Z
2023-12-17T11:44:20Z,42.805,6.029,13.3055,4.60154,2471.043,2023-12-17T13:46:50Z
2023-12-17T11:47:23Z,42.805,6.029,13.3047,4.60154,2470.997,2023-12-17T13:49:53Z
2023-12-17T11:50:26Z,42.805,6.029,13.3064,4.60165,2471.034,2023-12-17T13:52:56Z
2023-12-17T11:53:29Z,42.805,6.029,13.3057,4.60158,2471.034,2023-12-17T13:55:59Z
2023-12-17T11:56:32Z,42.805,6.029,13.3067,4.60173,2471.02,2023-12-17T13:59:02Z
2023-12-17T11:59:36Z,42.805,6.029,13.3061,4.60166,2471.02,2023-12-17T14:02:05Z
2023-12-17T12:02:39Z,42.805,6.029,13.3048,4.60142,2471.02,2023-12-17T14:05:09Z
2023-12-17T12:05:42Z,42.805,6.029,13.3061,4.60168,2471.02,2023-12-17T14:08:12Z
2023-12-17T12:08:45Z,42.805,6.029,13.3058,4.60150,2470.973,2023-12-17T14:11:15Z
2023-12-17T12:11:48Z,42.805,6.029,13.3052,4.60160,2470.997,2023-12-17T14:14:18Z
2023-12-17T12:14:51Z,42.805,6.029,13.3056,4.60170,2470.997,2023-12-17T14:17:21Z
2023-12-17T12:17:54Z,42.805,6.029,13.3051,4.60160,2471.02,2023-12-17T14:20:24Z
2023-12-17T12:20:57Z,42.805,6.029,13.3059,4.60167,2471.02,2023-12-17T14:23:27Z
2023-12-17T12:24:00Z,42.805,6.029,13.3059,4.60173,2471.034,2023-12-17T14:26:30Z
2023-12-17T12:27:03Z,42.805,6.029,13.3060,4.60178,2471.02,2023-12-17T14:29:33Z
2023-12-17T12:30:06Z,42.805,6.029,13.3061,4.60167,2471.034,2023-12-17T14:32:36Z
2023-12-17T12:33:09Z,42.805,6.029,13.3050,4.60152,2471.043,2023-12-17T14:35:39Z
2023-12-17T12:36:13Z,42.805,6.029,13.3056,4.60144,2470.973,2023-12-17T14:38:43Z
2023-12-17T12:39:16Z,42.805,6.029,13.3051,4.60156,2471.02,2023-12-17T14:41:46Z
2023-12-17T12:42:19Z,42.805,6.029,13.3063,4.60180,2470.983,2023-12-17T14:44:49Z
2023-12-17T12:45:22Z,42.805,6.029,13.3048,4.60152,2471.01,2023-12-17T14:47:52Z
2023-12-17T12:48:25Z,42.805,6.029,13.3051,4.60153,2470.997,2023-12-17T14:50:55Z
2023-12-17T12:51:28Z,42.805,6.029,13.3067,4.60161,2470.997,2023-12-17T14:53:58Z
2023-12-17T12:54:31Z,42.805,6.029,13.3054,4.60165,2470.973,2023-12-17T14:57:01Z
2023-12-17T12:57:34Z,42.805,6.029,13.3053,4.60175,2470.95,2023-12-17T15:00:04Z
2023-12-17T13:00:37Z,42.805,6.029,13.3053,4.60178,2470.997,2023-12-17T15:03:07Z
2023-12-17T13:03:40Z,42.805,6.029,13.3057,4.60183,2470.997,2023-12-17T15:06:10Z
2023-12-17T13:06:43Z,42.805,6.029,13.3055,4.60170,2470.987,2023-12-17T15:09:13Z
2023-12-17T13:09:47Z,42.805,6.029,13.3050,4.60179,2470.997,2023-12-17T15:12:16Z
2023-12-17T13:12:50Z,42.805,6.029,13.3060,4.60177,2470.973,2023-12-17T15:15:20Z
2023-12-17T13:15:53Z,42.805,6.029,13.3064,4.60175,2470.973,2023-12-17T15:18:23Z
2023-12-17T13:18:56Z,42.805,6.029,13.3080,4.60129,2470.987,2023-12-17T15:21:26Z
2023-12-17T13:21:59Z,42.805,6.029,13.3064,4.60177,2470.973,2023-12-17T15:24:29Z
2023-12-17T13:25:02Z,42.805,6.029,13.3061,4.60176,2470.973,2023-12-17T15:27:32Z
2023-12-17T13:28:05Z,42.805,6.029,13.3073,4.60169,2470.987,2023-12-17T15:30:35Z
2023-12-17T13:31:07Z,42.805,6.029,13.3061,4.60154,2470.987,2023-12-17T15:33:37Z
2023-12-17T13:34:10Z,42.805,6.029,13.3054,4.60174,2470.964,2023-12-17T15:36:40Z
2023-12-17T13:37:13Z,42.805,6.029,13.3056,4.60153,2470.973,2023-12-17T15:39:43Z
2023-12-17T13:40:16Z,42.805,6.029,13.3086,4.60175,2470.94,2023-12-17T15:42:46Z
2023-12-17T13:43:19Z,42.805,6.029,13.3069,4.60172,2470.973,2023-12-17T15:45:49Z
2023-12-17T13:46:22Z,42.805,6.029,13.3071,4.60153,2471.01,2023-12-17T15:48:52Z
2023-12-17T13:49:25Z,42.805,6.029,13.3064,4.60152,2470.95,2023-12-17T15:51:55Z
2023-12-17T13:52:28Z,42.805,6.029,13.3067,4.60149,2470.964,2023-12-17T15:54:58Z
2023-12-17T13:55:32Z,42.805,6.029,13.3063,4.60166,2470.94,2023-12-17T15:58:02Z
2023-12-17T13:58:35Z,42.805,6.029,13.3074,4.60154,2470.927,2023-12-17T16:01:05Z
2023-12-17T14:01:38Z,42.805,6.029,13.3051,4.60173,2470.927,2023-12-17T16:04:08Z
2023-12-17T14:04:41Z,42.805,6.029,13.3069,4.60158,2470.95,2023-12-17T16:07:11Z
2023-12-17T14:07:44Z,42.805,6.029,13.3055,4.60180,2470.95,2023-12-17T16:10:14Z
2023-12-17T14:10:47Z,42.805,6.029,13.3047,4.60137,2470.95,2023-12-17T16:13:17Z
2023-12-17T14:13:50Z,42.805,6.029,13.3051,4.60144,2470.964,2023-12-17T16:16:20Z
2023-12-17T14:16:53Z,42.805,6.029,13.3066,4.60160,2470.894,2023-12-17T16:19:23Z
2023-12-17T14:19:56Z,42.805,6.029,13.3064,4.60139,2470.94,2023-12-17T16:22:26Z
2023-12-17T14:22:59Z,42.805,6.029,13.3051,4.60146,2470.927,2023-12-17T16:25:29Z
2023-12-17T14:26:02Z,42.805,6.029,13.3059,4.60156,2470.927,2023-12-17T16:28:32Z
2023-12-17T14:29:06Z,42.805,6.029,13.3055,4.60152,2470.95,2023-12-17T16:31:35Z
2023-12-17T14:32:09Z,42.805,6.029,13.3062,4.60160,2470.927,2023-12-17T16:34:39Z
2023-12-17T14:35:12Z,42.805,6.029,13.3061,4.60169,2470.964,2023-12-17T16:37:42Z
2023-12-17T14:38:15Z,42.805,6.029,13.3060,4.60156,2470.917,2023-12-17T16:40:45Z
2023-12-17T14:41:18Z,42.805,6.029,13.3046,4.60153,2470.964,2023-12-17T16:43:48Z
2023-12-17T14:44:21Z,42.805,6.029,13.3063,4.60138,2470.927,2023-12-17T16:46:51Z
2023-12-17T14:47:24Z,42.805,6.029,13.3051,4.60146,2470.927,2023-12-17T16:49:54Z
2023-12-17T14:50:27Z,42.805,6.029,13.3048,4.60150,2470.94,2023-12-17T16:52:57Z
2023-12-17T14:53:30Z,42.805,6.029,13.3055,4.60170,2470.927,2023-12-17T16:56:00Z
2023-12-17T14:56:33Z,42.805,6.029,13.3048,4.60157,2470.927,2023-12-17T16:59:03Z
2023-12-17T14:59:36Z,42.805,6.029,13.3058,4.60150,2470.904,2023-12-17T17:02:06Z
2023-12-17T15:02:39Z,42.805,6.029,13.3070,4.60168,2470.913,2023-12-17T17:05:09Z